Harvard, Illinois, United States (60033)
Lat: 42.42N, Lon: 88.61W
Wx Zone: ILZ005
Local Info
Past Weather Observations for Today

NOTE: This archive is for the closest National Weather Service station to Harvard. Information may differ from the station used for current weather conditions.

Click here for Long-term Archive

Time Weather Temperature Dewpoint Humidity Pressure Winds Precip Visibility
17:35
Overcast
30°F / -1°C 25°F / -4°C 80% 30.24 in
(1024 mb)
S 3.5 mph
(S 6 kph)
- 7SM
17:15
Overcast
30°F / -1°C 25°F / -4°C 80% 30.24 in
(1024 mb)
S 3.5 mph
(S 6 kph)
- 7SM
16:55
Overcast
30°F / -1°C 25°F / -4°C 80% 30.24 in
(1024 mb)
Calm - 7SM
16:35
Overcast
30°F / -1°C 25°F / -4°C 80% 30.24 in
(1024 mb)
Calm - 7SM
16:15
Overcast
30°F / -1°C 25°F / -4°C 80% 30.24 in
(1024 mb)
Calm - 7SM
15:55
Overcast
30°F / -1°C 25°F / -4°C 80% 30.21 in
(1023 mb)
Calm - 7SM
15:35
Overcast
30°F / -1°C 25°F / -4°C 80% 30.24 in
(1024 mb)
Calm - 7SM
15:15
Overcast
30°F / -1°C 25°F / -4°C 80% 30.24 in
(1024 mb)
Calm - 7SM
14:55
Overcast
30°F / -1°C 25°F / -4°C 80% 30.24 in
(1024 mb)
SW 5.8 mph
(SW 9 kph)
- 10SM
14:35
Overcast
30°F / -1°C 25°F / -4°C 80% 30.24 in
(1024 mb)
Calm - 10SM
14:15
Overcast
30°F / -1°C 25°F / -4°C 80% 30.21 in
(1023 mb)
S 4.6 mph
(S 7 kph)
- 10SM
13:55
Overcast
30°F / -1°C 25°F / -4°C 80% 30.21 in
(1023 mb)
Calm - 7SM
13:35
Overcast
30°F / -1°C 23°F / -5°C 75% 30.24 in
(1024 mb)
S 3.5 mph
(S 6 kph)
- 10SM
13:15
Overcast
30°F / -1°C 23°F / -5°C 75% 30.24 in
(1024 mb)
Calm - 10SM
12:55
Overcast
28°F / -2°C 23°F / -5°C 80% 30.24 in
(1024 mb)
Calm - 10SM
12:35
Overcast
28°F / -2°C 23°F / -5°C 80% 30.24 in
(1024 mb)
SSE 3.5 mph
(SSE 6 kph)
- 7SM
12:15
Overcast
28°F / -2°C 23°F / -5°C 80% 30.24 in
(1024 mb)
SSW 4.6 mph
(SSW 7 kph)
- 7SM
11:55
Overcast
28°F / -2°C 23°F / -5°C 80% 30.24 in
(1024 mb)
Calm - 7SM
11:35
Overcast
28°F / -2°C 23°F / -5°C 80% 30.24 in
(1024 mb)
Calm - 7SM
11:15
Overcast
27°F / -3°C 23°F / -5°C 86% 30.27 in
(1025 mb)
Calm - 7SM
10:55
Overcast
27°F / -3°C 21°F / -6°C 80% 30.27 in
(1025 mb)
Calm - 10SM
10:35
Overcast
27°F / -3°C 21°F / -6°C 80% 30.27 in
(1025 mb)
Calm - 7SM
10:15
Overcast
27°F / -3°C 21°F / -6°C 80% 30.27 in
(1025 mb)
Calm - 7SM
09:55
Overcast
27°F / -3°C 21°F / -6°C 80% 30.27 in
(1025 mb)
Calm - 7SM
09:35
Overcast
27°F / -3°C 21°F / -6°C 80% 30.27 in
(1025 mb)
Calm - 7SM
09:15
Overcast
27°F / -3°C 21°F / -6°C 80% 30.27 in
(1025 mb)
Calm - 10SM
08:55
Overcast
25°F / -4°C 19°F / -7°C 80% 30.27 in
(1025 mb)
Calm - 10SM
08:35
Overcast
25°F / -4°C 19°F / -7°C 80% 30.27 in
(1025 mb)
Calm - 10SM
08:15
Overcast
25°F / -4°C 19°F / -7°C 80% 30.27 in
(1025 mb)
Calm - 10SM
07:55
Overcast
25°F / -4°C 19°F / -7°C 80% 30.27 in
(1025 mb)
Calm - 10SM
07:35
Overcast
25°F / -4°C 19°F / -7°C 80% 30.27 in
(1025 mb)
Calm - 10SM
07:15
Overcast
25°F / -4°C 19°F / -7°C 80% 30.27 in
(1025 mb)
Calm - 10SM
06:55
Overcast
25°F / -4°C 19°F / -7°C 80% 30.27 in
(1025 mb)
Calm - 10SM
06:35
Overcast
25°F / -4°C 21°F / -6°C 86% 30.27 in
(1025 mb)
Calm - 10SM
06:15
Overcast
25°F / -4°C 21°F / -6°C 86% 30.27 in
(1025 mb)
Calm - 10SM
05:55
Overcast
25°F / -4°C 21°F / -6°C 86% 30.27 in
(1025 mb)
Calm - 10SM
05:35
Overcast
25°F / -4°C 21°F / -6°C 86% 30.27 in
(1025 mb)
Calm - 10SM
05:15
Overcast
25°F / -4°C 21°F / -6°C 86% 30.27 in
(1025 mb)
Calm - 10SM
04:55
Overcast
25°F / -4°C 21°F / -6°C 86% 30.27 in
(1025 mb)
Calm - 10SM
04:35
Overcast
25°F / -4°C 21°F / -6°C 86% 30.27 in
(1025 mb)
Calm - 10SM
04:15
Overcast
25°F / -4°C 21°F / -6°C 86% 30.27 in
(1025 mb)
Calm - 10SM
03:55
Overcast
25°F / -4°C 21°F / -6°C 86% 30.27 in
(1025 mb)
Calm - 10SM
03:35
Overcast
25°F / -4°C 19°F / -7°C 80% 30.27 in
(1025 mb)
Calm - 10SM
03:15
Mostly Cloudy
23°F / -5°C 19°F / -7°C 86% 30.27 in
(1025 mb)
Calm - 10SM
02:55
Partly Cloudy
23°F / -5°C 19°F / -7°C 86% 30.27 in
(1025 mb)
WNW 3.5 mph
(WNW 6 kph)
- 10SM
02:35
Mostly Cloudy
25°F / -4°C 19°F / -7°C 80% 30.27 in
(1025 mb)
W 3.5 mph
(W 6 kph)
- 10SM
02:15
Overcast
25°F / -4°C 19°F / -7°C 80% 30.27 in
(1025 mb)
W 3.5 mph
(W 6 kph)
- 10SM
01:55
Overcast
25°F / -4°C 19°F / -7°C 80% 30.27 in
(1025 mb)
SSW 4.6 mph
(SSW 7 kph)
- 10SM
01:35
Overcast
25°F / -4°C 21°F / -6°C 86% 30.27 in
(1025 mb)
Calm - 10SM
01:15
Overcast
25°F / -4°C 19°F / -7°C 80% 30.27 in
(1025 mb)
Calm - 10SM
00:55
Overcast
25°F / -4°C 21°F / -6°C 86% 30.27 in
(1025 mb)
Calm - 10SM
00:35
Overcast
25°F / -4°C 19°F / -7°C 80% 30.27 in
(1025 mb)
Calm - 10SM
00:15
Overcast
25°F / -4°C 21°F / -6°C 86% 30.27 in
(1025 mb)
Calm - 10SM
Time Weather Temperature Dewpoint Humidity Pressure Winds Precip Visibility


Weather for websites

WeatherForYou.com, LLC is not responsible for any damages or problems caused by this service. Current weather conditions are obtained from the closest station including government and personal stations which may have varying degrees of accuracy. Weather forecasts are derived from the NOAA NDFD. Like all things, this site belongs to Jesus Christ... He just trusts me to maintain it. If you have any questions or comments email webmaster@weatherforyou.com

Copyright © 2014, WeatherForYou.com LLC. All rights reserved.